EGPO

Stornoway Airport

Airport
ICAO code
EGPO
IATA Code
SYY
Summary
ICAO Region
EUR
ICAO Territory
Location

Stornoway, Outer Hebrides, Scotland

Serving
Stornoway
Elevation
26 ft
Coordinates
58° 12' 50" N , 6° 19' 50" W
KCC
Metar
EGPO 271050Z 24010KT 210V280 9999 VCSH FEW020CB SCT036 07/04 Q1002

Description

Small airport serving the Islands of Harris and Lewis in the Scottish Western Isles.

Climatology

Temperate Marine climate/Oceanic climate (Köppen climate classification Cfb). Moderately cool summer and comparatively warm winter with a temperature range of only 14°C. Prevailing south-westerly winds from the Atlantic Ocean.

Runways

Designator Length Width Surface Rops
7/25 1000 23 ASP No/No
18/36 2200 46 ASP Yes/Yes

SKYbrary Partners:

Safety knowledge contributed by: